COSMOS 2251 DEB

Satellite information

Favourite Embed

Satellite Type and Status

DEBRISIN ORBIT

Key statistics

Satellite COSMOS 2251 DEB at a glance.

Uptime

11869

Days in orbit

Revolutions

≈ 14.0

Per day

Orbit

LEO

Low Earth Orbit

Inclination

73.7

Latest

Satellite identification and parameters

Extended collection of information and parameters for COSMOS 2251 DEB.

Object identification

Identified? True

Debris? True

Object name: COSMOS 2251 DEB

International designator: 1993-036AHJ

Object number (NORAD): 35045

Object ID (CCSDS): 35045

Country: COMMONWEALTH OF INDEPENDENT STATES (CIS)

Current information (Y/N): Y

RCS size: SMALL

Orbital parameters

Period: 102.829 minutes

Inclination: 73.7196 deg

SMA: 7270.602 km

Apoapsis: 1025.955 km

Periapsis: 758.978 km

RAAN: 53.0934 deg

Eccentricy: 0.01836

Argument of periapsis: 295.1287 deg

Mean anomaly: 63.0895 deg

Mean motion: 14.00384321 rev/day

Mean motion (dot): 0.00001627 rev/day2

B* drag term: 0.00096523988 1/REarth

Two-line elements (TLE)

Creation date: Dec. 13, 2025, 4:32 a.m.

Reference frame: TEME

Reference center: EARTH

Epoch: Dec. 12, 2025, 12:27 p.m. UTC

TLE line 0: 0 COSMOS 2251 DEB

TLE line 1: 1 35045U 93036AHJ 25346.51901919 .00001627 00000-0 96524-3 0 9998

TLE line 2: 2 35045 73.7196 53.0934 0183600 295.1287 63.0895 14.00384321846407

Live tracking on map

Real-time ground track for satellite COSMOS 2251 DEB.

In-orbit conjunctions

A list of the most updated potential collisions computed for object COSMOS 2251 DEB.

Target Orbit TCA Probability of collision Miss distance Type
CZ-6A DEB SSO 2025-10-01 13:21:40 0.0009826852 22.0 (m) DEBRIS
DELTA 1 DEB SSO 2025-08-02 07:17:24 0.001298327 17.0 (m) DEBRIS
COSMOS 1867 COOLANT LEO 2025-06-20 21:05:05 0.0001452246 552.0 (m) DEBRIS
PEGASUS DEB LEO 2025-06-03 15:57:54 0.0001546696 114.0 (m) DEBRIS
FENGYUN 1C DEB SSO 2024-08-31 09:24:22 0.0002780245 128.0 (m) DEBRIS

Associated space launch

Military communications satellite. Destroyed in a collision with Iridium 33.

COSMOS 2251 DEB was lifted into orbit during the mission ‘Kosmos-3M | Strela-2M 51’, on board a Kosmos-3M space rocket.

The launch took place on June 16, 1993, 4:17 a.m. from 132/1 (132L).

For more information about the launch, click the button.

Launch to space Kosmos-3M | Strela-2M 51
Kosmos-3M | Strela-2M 51

Agency: N/A

Status: Launch Successful

Launch date: June 16, 1993, 4:17 a.m. UTC

Rocket: Kosmos-3M

Launch pad: 132/1 (132L)

Location: Plesetsk Cosmodrome, Russian Federation

...

Latest news about this satellite

There are no fresh news available about this satellite. Check back as we update our databases every day.


Newsletter sign-up

Weekly statistics, charts and insights to help you stay on top of the space industry.